Погода в Юй Чи Сяне

Тайвань     23°53′45″N   120°56′08″E
темп.,
°C
ветер,
м/с
пор.,
м/с
влажн.,
%
обл.,
%
осадки,
мм/ч
давл.,
гПа
погр.,
м
16 октября, сб
сб1623:00+16в33675 0.0 101554
02:00+15в33713 0.0 101449
05:00+16в33775 0.0 101443
08:00+22в11575 0.0 1015205
11:00+26з22512 0.0 10141067
14:00+25з326525 0.4 10131041
17:00+21ю00903 3.1 101516
20:00+18в32901 3.6 101749
17 октября, вс
вс1723:00+16в33870 0.1 101851
02:00+17в22875 0.1 101742
05:00+17в22879 0.0 101839
08:00+21вюв127021 0.0 1018435
11:00+25ююв12534 0.0 10161204
14:00+26ю12516 0.0 10141360
17:00+21юв12750 0.0 101696
20:00+17в23793 0.0 101976
18 октября, пн
пн1823:00+16в23804 0.0 101957
02:00+16в227910 0.0 101835
05:00+16в22795 0.0 101829
08:00+21з11620 0.0 1019384
11:00+23з22570 0.0 1018817
14:00+24з22585 0.0 10161033
17:00+20зюз11793 0.0 101718
20:00+18в11876 0.0 101923
19 октября, вт
вт1923:00+17в21845 0.0 102028
02:00+16в22855 0.0 101934
05:00+16в22855 0.0 101932
08:00+21юв11637 0.0 1019323
11:00+23з326122 0.0 10191060
14:00+24зюз226018 0.0 10171188
17:00+21з117813 0.0 101736
20:00+18в118675 0.0 101923
20 октября, ср
ср2023:00+17в118399 0.0 101918
02:00+17в2180100 0.0 101825
05:00+17в1179100 0.0 101824
08:00+20зюз1168100 0.0 1019278
11:00+23з2260100 0.0 1019831
14:00+24з226383 0.1 10161176
17:00+21ююз118184 0.1 101618
20:00+18в228717 0.1 101833